Location: Ar Ranvel
(48.3000°N, 4.8833°W)
Time: 15:33:17
(UTC+00:00)

Cosmos 1346 Rocket - Pass Details

Date: 16 June 2021
Orbit: 526 x 551 km, 81.2° (Epoch: 31 July)

Event Time Altitude Azimuth Distance (km) Brightness Sun altitude
Exits shadow 22:18:24 18° 120° (ESE) 1,397 4.4 -13.3°
Maximum altitude 22:19:53 21° 90° (E) 1,245 4.4 -13.4°
Drops below altitude 10° 22:22:58 10° 40° (NE) 1,829 5.8 -13.6°
Sets 22:25:31 0° 24° (NNE) 2,732 7.0 -13.8°
